(231674) = 1994 PG6

Discovered at La Silla on 1994-08-10 by E. W. Elst.

Orbit

Orbit type: Main Belt

Note: WebGL enabled browser required.

epoch2023-02-25.0
epoch JD2460000.5
perihelion date2020-04-11.40034
perihelion JD2458950.90034
argument of perihelion (°)332.11774
ascending node (°)328.86377
inclination (°)3.37231
eccentricity0.2211942
perihelion distance (AU)2.0626046
Tisserand w.r.t. Jupiter3.4
ΔV w.r.t. Earth (km/sec)9.1
semimajor axis (AU)2.6484197
mean anomaly (°)240.01993
mean daily motion (°/day)0.22867760
aphelion distance (AU)3.234
period (years)4.31
P-vector [x]0.51518007
P-vector [y]-0.77500957
P-vector [z]-0.36599133
Q-vector [x]0.85654208
Q-vector [y]0.45039984
Q-vector [z]0.25194373
absolute magnitude16.61
phase slope0.15
uncertainty0
referenceMPEC 2023-F20
observations used471
oppositions14
arc length (days)10445
first opposition used1994
last opposition used2023
residual rms (arc-secs)0.85
perturbers coarse indicatorM-v
perturbers precise indicator003Ek
first observation date used1994-08-10.0
last observation date used2023-03-16.0
computer nameMPCLINUX
JD of orbit computation2456731.629235
perihelion JD uncertainty (days)1.1060E-04
argument of perihelion uncertainty (°)9.2169E-05
ascending node uncertainty (°)9.0330E-05
inclination uncertainty (°)7.9962E-06
eccentricity uncertainty 8.7510E-08
perihelion distance uncertainty (AU)2.3067E-07
Minimum Orbit Intersection Distances (in AU)
for orbit epoch: 2460000.5, reference: E2023-F20
Mercury1.61941
Venus1.33458
Earth1.04685
Mars0.64989
Jupiter1.99847
Saturn5.87655
Uranus15.3239
Neptune26.9781

Observations

482 total observations over interval: 1994 08 10.25486 – 2023 03 16.419906
These data are available for download (format description).

Date (UT) J2000 RA J2000 Dec Magn Location Ref
1994 08 10.25486 22 37 12.13 -08 53 14.4 18.5   809 – European Southern Observatory, La Silla MPC 24335
1994 08 10.26667 22 37 11.51 -08 53 16.0   809 – European Southern Observatory, La Silla MPC 24335
1994 08 10.27847 22 37 10.90 -08 53 16.5   809 – European Southern Observatory, La Silla MPC 24335
1994 08 11.25903 22 36 28.54 -08 55 06.6   809 – European Southern Observatory, La Silla MPC 24335
1994 08 11.27083 22 36 27.95 -08 55 08.2   809 – European Southern Observatory, La Silla MPC 24335
1994 08 11.28333 22 36 27.33 -08 55 08.4   809 – European Southern Observatory, La Silla MPC 24335
1994 09 03.17708 22 17 16.14 -09 50 41.7 19.0   809 – European Southern Observatory, La Silla MPC 24675
1994 09 03.19028 22 17 15.50 -09 50 43.3   809 – European Southern Observatory, La Silla MPC 24675
1994 09 03.20347 22 17 14.73 -09 50 44.6   809 – European Southern Observatory, La Silla MPC 24675
1994 09 04.20486 22 16 25.40 -09 53 08.6   809 – European Southern Observatory, La Silla MPC 24675
1994 09 04.21806 22 16 24.66 -09 53 11.3   809 – European Southern Observatory, La Silla MPC 24675
1994 09 04.23125 22 16 23.91 -09 53 12.7   809 – European Southern Observatory, La Silla MPC 24675
1994 09 09.30188 22 12 27.24 -10 04 28.2 19.1 V 691 – Steward Observatory, Kitt Peak-Spacewatch MPC 24659
1994 09 09.32540 22 12 26.15 -10 04 30.9   691 – Steward Observatory, Kitt Peak-Spacewatch MPC 24659
1994 09 09.34906 22 12 25.05 -10 04 33.9   691 – Steward Observatory, Kitt Peak-Spacewatch MPC 24659
2003 10 17.41616 01 57 00.79 +17 05 06.2 20.6 V 691 – Steward Observatory, Kitt Peak-Spacewatch MPS 139195
2003 10 17.44449 01 56 59.12 +17 04 59.2 20.9 V 691 – Steward Observatory, Kitt Peak-Spacewatch MPS 139195
2003 10 17.47131 01 56 57.53 +17 04 52.2 20.4 V 691 – Steward Observatory, Kitt Peak-Spacewatch MPS 139195
2003 10 25.26184 01 49 26.80 +16 29 54.1 19.1   704 – Lincoln Laboratory ETS, New Mexico MPS 139195
2003 10 25.27396 01 49 26.09 +16 29 50.6 19.8   704 – Lincoln Laboratory ETS, New Mexico MPS 139195
2003 10 25.28632 01 49 25.34 +16 29 47.8 19.7   704 – Lincoln Laboratory ETS, New Mexico MPS 139195
2003 10 25.29882 01 49 24.57 +16 29 43.4 20.1   704 – Lincoln Laboratory ETS, New Mexico MPS 139195
2003 10 25.31097 01 49 23.82 +16 29 40.5 20.2   704 – Lincoln Laboratory ETS, New Mexico MPS 139195
2003 11 22.11020 01 28 37.16 +14 23 15.3 21.2 V 691 – Steward Observatory, Kitt Peak-Spacewatch MPS 139195
2003 11 22.13934 01 28 36.36 +14 23 08.9 21.5 V 691 – Steward Observatory, Kitt Peak-Spacewatch MPS 139195
2003 11 22.16955 01 28 35.46 +14 23 03.0 21.0 V 691 – Steward Observatory, Kitt Peak-Spacewatch MPS 139195
2007 08 09.27440 23 26 31.19 -02 56 01.1 19.5   704 – Lincoln Laboratory ETS, New Mexico MPS 212467
2007 08 09.28615 23 26 30.84 -02 56 02.0 19.5   704 – Lincoln Laboratory ETS, New Mexico MPS 212467
2007 08 09.30969 23 26 30.24 -02 56 02.5 19.5   704 – Lincoln Laboratory ETS, New Mexico MPS 212467
2007 08 09.32150 23 26 29.82 -02 56 02.0 20.0   704 – Lincoln Laboratory ETS, New Mexico MPS 212467
2007 08 10.34948 23 26 02.90 -02 56 23.1 19.3 V 691 – Steward Observatory, Kitt Peak-Spacewatch MPS 212467
2007 08 10.36713 23 26 02.43 -02 56 23.6 19.3 V 691 – Steward Observatory, Kitt Peak-Spacewatch MPS 212467
2007 08 10.38478 23 26 01.94 -02 56 24.7 19.3 V 691 – Steward Observatory, Kitt Peak-Spacewatch MPS 212467
2007 08 15.27152 23 23 30.45 -03 00 27.8 19.3   704 – Lincoln Laboratory ETS, New Mexico MPS 213636
2007 08 15.29573 23 23 29.54 -03 00 31.2 20.1   704 – Lincoln Laboratory ETS, New Mexico MPS 213636
2007 08 15.31989 23 23 28.62 -03 00 32.1 19.7   704 – Lincoln Laboratory ETS, New Mexico MPS 213636
2007 08 17.63594 23 22 03.88 -03 03 47.7 19.4 R D29 – Purple Mountain Observatory, XuYi Station MPS 213636
2007 08 17.64773 23 22 03.32 -03 03 48.8 19.6 R D29 – Purple Mountain Observatory, XuYi Station MPS 213636
2007 08 17.65968 23 22 02.92 -03 03 49.1 19.1 R D29 – Purple Mountain Observatory, XuYi Station MPS 213636
2007 08 17.66997 23 22 02.42 -03 03 51.2 19.5 R D29 – Purple Mountain Observatory, XuYi Station MPS 213636
2007 08 22.27561 23 18 52.27 -03 12 32.1 19.5   704 – Lincoln Laboratory ETS, New Mexico MPS 214343
2007 08 22.28820 23 18 51.65 -03 12 33.5 19.4   704 – Lincoln Laboratory ETS, New Mexico MPS 214343
2007 08 22.30075 23 18 51.10 -03 12 35.9 19.5   704 – Lincoln Laboratory ETS, New Mexico MPS 214343
2007 08 22.31331 23 18 50.47 -03 12 37.6 19.2   704 – Lincoln Laboratory ETS, New Mexico MPS 214343
2007 09 06.19045 23 06 29.28 -03 55 23.3 18.4   704 – Lincoln Laboratory ETS, New Mexico MPS 214942
2007 09 06.20212 23 06 28.72 -03 55 24.8 18.3   704 – Lincoln Laboratory ETS, New Mexico MPS 214942
2007 09 06.21377 23 06 28.03 -03 55 27.1 18.6   704 – Lincoln Laboratory ETS, New Mexico MPS 214942
2007 09 14.18205 22 59 33.11 -04 22 13.8 19.3 V 691 – Steward Observatory, Kitt Peak-Spacewatch MPS 214942
2007 09 14.19963 22 59 32.23 -04 22 17.4 19.1 V 691 – Steward Observatory, Kitt Peak-Spacewatch MPS 214942
2007 09 14.21721 22 59 31.29 -04 22 21.0 19.2 V 691 – Steward Observatory, Kitt Peak-Spacewatch MPS 214942
2007 09 16.18112 22 57 53.87 -04 28 47.5 19.1   704 – Lincoln Laboratory ETS, New Mexico MPS 215930
2007 09 16.19337 22 57 53.23 -04 28 48.5 19.4   704 – Lincoln Laboratory ETS, New Mexico MPS 215930
2007 09 16.20554 22 57 52.56 -04 28 50.9 19.6   704 – Lincoln Laboratory ETS, New Mexico MPS 215930
2007 09 16.21775 22 57 51.88 -04 28 53.8 19.0   704 – Lincoln Laboratory ETS, New Mexico MPS 215930
2007 09 16.22992 22 57 51.24 -04 28 55.2 19.5   704 – Lincoln Laboratory ETS, New Mexico MPS 215930
2007 09 19.17239 22 55 31.13 -04 38 11.8 19.3   704 – Lincoln Laboratory ETS, New Mexico MPS 215930
2007 09 19.18453 22 55 30.61 -04 38 14.4 19.4   704 – Lincoln Laboratory ETS, New Mexico MPS 215930
2007 09 19.19665 22 55 29.97 -04 38 16.0 19.2   704 – Lincoln Laboratory ETS, New Mexico MPS 215930
2007 09 19.20878 22 55 29.40 -04 38 17.7 19.7   704 – Lincoln Laboratory ETS, New Mexico MPS 215930
2007 09 19.22091 22 55 28.77 -04 38 21.0 19.0   704 – Lincoln Laboratory ETS, New Mexico MPS 215930
2007 10 04.22965 22 46 15.99 -05 14 10.6 19.3 V G96 – Mt. Lemmon Survey MPS 218035
2007 10 04.23674 22 46 15.78 -05 14 11.6 19.4 V G96 – Mt. Lemmon Survey MPS 218035
2007 10 04.24380 22 46 15.56 -05 14 12.3 19.4 V G96 – Mt. Lemmon Survey MPS 218035
2007 10 04.25088 22 46 15.38 -05 14 12.8 19.4 V G96 – Mt. Lemmon Survey MPS 218035
2007 10 11.24009 22 43 56.13 -05 21 53.2 19.4 V G96 – Mt. Lemmon Survey MPS 218400
2007 10 11.24723 22 43 56.02 -05 21 54.2 19.4 V G96 – Mt. Lemmon Survey MPS 218400
2007 10 11.25429 22 43 55.88 -05 21 54.4 19.7 V G96 – Mt. Lemmon Survey MPS 218400
2007 10 11.26150 22 43 55.77 -05 21 54.6 19.7 V G96 – Mt. Lemmon Survey MPS 218400
2007 11 02.15212 22 45 47.12 -05 00 40.7 20.5 V G96 – Mt. Lemmon Survey MPS 224544
2007 11 02.15852 22 45 47.26 -05 00 39.5 20.3 V G96 – Mt. Lemmon Survey MPS 224544
2007 11 02.16475 22 45 47.37 -05 00 39.1 20.2 V G96 – Mt. Lemmon Survey MPS 224544
2007 11 02.17110 22 45 47.52 -05 00 37.8 20.2 V G96 – Mt. Lemmon Survey MPS 224544
2008 12 02.37499 06 27 46.39 +27 28 29.6 21.1 V 691 – Steward Observatory, Kitt Peak-Spacewatch MPS 267349
2008 12 02.39597 06 27 45.28 +27 28 30.6 21.3 V 691 – Steward Observatory, Kitt Peak-Spacewatch MPS 267349
2008 12 02.41589 06 27 44.24 +27 28 31.6 21.3 V 691 – Steward Observatory, Kitt Peak-Spacewatch MPS 267349
2010 02 14.19533 10 50 09.81 +06 46 26.8 20.9 V 691 – Steward Observatory, Kitt Peak-Spacewatch MPS 312914
2010 02 14.21294 10 50 08.94 +06 46 31.3 21.2 V 691 – Steward Observatory, Kitt Peak-Spacewatch MPS 312914
2010 02 14.23055 10 50 08.07 +06 46 35.1 21.1 V 691 – Steward Observatory, Kitt Peak-Spacewatch MPS 312914
2010 02 16.21467 10 48 30.80 +06 54 29.5 20.8 V 691 – Steward Observatory, Kitt Peak-Spacewatch MPS 312914
2010 02 16.23230 10 48 29.91 +06 54 33.9 20.7 V 691 – Steward Observatory, Kitt Peak-Spacewatch MPS 312914
2010 02 16.24990 10 48 29.01 +06 54 38.2 21.0 V 691 – Steward Observatory, Kitt Peak-Spacewatch MPS 312914
2010 02 17.44029 10 47 29.07 +06 59 30.2 20.8 V G96 – Mt. Lemmon Survey MPS 312914
